Location: Albany
(35.0170°S, 117.8920°E)
Time: 09:30:22
(UTC+08:00)

S-56A Canister/Altair - Pass Details

Date: 31 January 2021
Orbit: 632 x 2501 km, 38.9° (Epoch: 25 February)

Event Time Altitude Azimuth Distance (km) Brightness Sun altitude
Rises 14:00:24 0° 269° (W) 5,401 12.2 61.8°
Reaches altitude 10° 14:03:37 10° 267° (W) 4,600 12.0 61.3°
Maximum altitude 14:17:21 76° 181° (S) 2,527 11.1 58.8°
Drops below altitude 10° 14:32:37 10° 95° (E) 5,047 11.5 56.0°
Sets 14:36:20 0° 92° (E) 5,931 11.7 55.3°
